アンダーソン-リニア彗星

148P/Anderson-LINEAR (2015)

English version
Home page
Updated on May 29, 2016

---------------------------------------------------------------------

・ プロフィール

・ 軌道要素

Epoch 2015 June 27.0 TT = JDT 2457200.5
T 2015 June 13.78079 TT                                 MPC
q   1.6920109            (2000.0)            P               Q
n   0.13995163     Peri.    6.69935     -0.11260521     -0.99156244
a   3.6740980      Node    89.78005     +0.90864075     -0.12891175
e   0.5394758      Incl.    3.68200     +0.40210950     +0.01362655
P   7.04
From 113 observations 1963 Nov. 22-2014 Sept. 3, mean residual 0".7.
     Nongravitational parameters A1 = +0.25, A2 = -0.0052.

・ 光度変化

        m1 = 15.0 + 5 logΔ + 10.0 log r

---------------------------------------------------------------------

軌道要素はM.P.E.C. 2014-R70に掲載されたものです。
光度グラフはComet for Windowsで作成したものです。

---------------------------------------------------------------------

Copyright(C) Seiichi Yoshida (comet@aerith.net). All rights reserved.